Weather in Anastasievskaya

Russia / Krasnodar Krai     45°12′56″N   37°53′41″E
temp.,
°C
wind,
m/s
gust,
m/s
humid.,
%
clouds,
%
prec.,
mm/h
press.,
hPa
HPBL,
m
10 may, mon
mon1000:00+8w476174 0.0 1023107
03:00+8wnw346650 0.4 102453
06:00+8wnw35655 0.0 102485
09:00+13nw674828 0.2 10241916
12:00+14nw774399 0.0 10232385
15:00+14wnw78426 0.0 10232038
18:00+13wnw5749100 0.0 10221372
21:00+9wsw496396 0.0 1021164
11 may, tue
tue1100:00+10wsw61358100 0.0 1018466
03:00+11wsw61260100 0.1 1016554
06:00+10wsw61274100 0.6 10151043
09:00+11wsw91473100 1.8 10141544
12:00+10wsw101376100 0.9 10141340
15:00+10sw91375100 1.4 1014913
18:00+10ssw51190100 5.3 1015772
21:00+9sse3793100 7.3 1015270
12 may, wed
wed1200:00+10s51190100 0.8 1015600
03:00+10s61285100 1.0 1014649
06:00+10se4888100 0.1 1015229
09:00+11se478299 0.3 1015332
12:00+18s564914 0.0 10151553
15:00+20s34465 0.0 10151526
18:00+20e345536 0.0 1014358
21:00+13ne22790 0.0 101415
13 may, thu
thu1300:00+12e3386100 0.0 101336
03:00+11ene339210 0.0 101354
06:00+11e369199 0.0 1012130
09:00+18e456744 0.0 1012358
12:00+24e565096 0.0 1011661
15:00+26ese6749100 0.0 1011918
18:00+24e6106525 0.0 1010515
21:00+19e412910 0.0 1010228
14 may, fri
fri1400:00+17ese49945 0.0 1010150
03:00+16se22910 0.0 101114
06:00+17ese11849 0.0 101111
09:00+23se2360100 0.0 1011266
12:00+29sse233876 0.0 1011730
15:00+31sse223455 0.0 10101235
18:00+26nw235995 0.0 1010163
21:00+19nw35720 0.0 101075